Flag for Germany Weather past 2 weeks in Norden, Lower Saxony, Germany

Now
41 °F

Fog.


Feels Like: 34 °F
Forecast: 40 / 44 °F
Wind: 13 mph from Northwest

Location: Norderney

Current Time: Mar 5, 2015 at 12:28:09 AM

Latest Report: Mar 4, 2015 at 11:00 PM


Visibility: 4 mi

Pressure: 30.38 "Hg

Humidity: 82%

Dew point: 36 °F

Location of NordenLocation

Historic Weather in Norden — Graph

°F

Norden temperature yesterday

Maximum temperature yesterday: 43 °F (at 1:00 PM)
Minimum temperature yesterday: 38 °F (at 6:00 AM)
Average temperature yesterday: 41 °F

Past Weeks' High & Low Weather Summary

 TemperatureHumidityPressure
High47 °F (Mar 1, 1:00 PM)100% (Feb 26, 2:00 AM)30.67 "Hg (Feb 26, 2:00 AM)
Low33 °F (Feb 23, 4:00 AM)63% (Feb 28, 11:00 PM)29.18 "Hg (Feb 23, 6:00 AM)
Average40 °F85%29.79 "Hg
* Reported Feb 17 11:00 PM — Mar 4 11:00 PM, Norden, Weather by CustomWeather, © 2015

Note: Actual official high and low records may vary slightly from our data, if they occured in-between our weather recording intervals... More about our weather records

Advertising

Norden weather history for previous 24 hours

 ConditionsComfort  
Time TempWeatherWind HumidityBarometerVisibility
11:00 PM
Wed, Mar 4
41 °FFog.13 mph82%30.38 "Hg4 mi
10:00 PM41 °FFog.14 mph83%30.34 "Hg4 mi
9:00 PM41 °FPassing clouds.14 mph83%30.30 "Hg12 mi
8:00 PM42 °FOvercast.15 mph82%30.25 "Hg12 mi
7:00 PM42 °FPassing clouds.16 mph83%30.19 "Hg16 mi
6:00 PM42 °FPartly sunny.15 mph83%30.14 "Hg16 mi
5:00 PM42 °FScattered clouds.13 mph85%30.11 "Hg12 mi
4:00 PM42 °FPassing clouds.13 mph87%30.09 "Hg12 mi
3:00 PM40 °FSprinkles. Overcast.13 mph88%30.06 "Hg3 mi
2:00 PM42 °FOvercast.9 mph80%30.05 "Hg7 mi
1:00 PM43 °FPartly sunny.9 mph81%30.06 "Hg11 mi
12:00 PM42 °FOvercast.10 mph78%30.03 "Hg8 mi
11:00 AM41 °FPartly sunny.9 mph81%30.03 "Hg9 mi
10:00 AM41 °FPartly sunny.9 mph81%30.02 "Hg9 mi
9:00 AM41 °FPartly sunny.9 mph84%30.00 "Hg11 mi
8:00 AM40 °FPartly sunny.9 mph80%29.98 "Hg8 mi
7:00 AM39 °FOvercast.8 mph87%29.97 "Hg11 mi
6:00 AM38 °FOvercast.8 mph85%29.96 "Hg14 mi
5:00 AM38 °FOvercast.7 mph82%29.95 "Hg17 mi
4:00 AM38 °FPassing clouds.7 mph84%29.95 "Hg15 mi
3:00 AM39 °FPassing clouds.7 mph84%29.95 "Hg12 mi
2:00 AM38 °FPassing clouds.7 mph86%29.94 "Hg11 mi
1:00 AM40 °FClear.8 mph78%29.94 "Hg9 mi
12:00 AM41 °FPassing clouds.9 mph78%29.93 "Hg7 mi
Weather by CustomWeather, © 2015

See weather overviewHow to use our weather pages